SCP
0 0 0 0 0 0 0 0 0 0 0 0 0 0 0 0 0 0 0 0 0 0 0 0 0 0 0 0 0 0 0 0 0 0 0 0 0 0 0 0 0 0 0
0 0 0 0 0 0 0 0 0 0 0 0 0 0 0 0 0 0 0 0 0 0 0 0 0 0 0 0 0 0 0 0 0 0 0 0 0 0 0 0 0 0 0
0 0 0 0 0 0 0 0 0 0 0 0 0 0 0 0 0 0 0 0 0 0 0 0 0 0 0 0 0 0 0 0 0 0 0 0 0 0 0 0 0 0 0
0 0 0 0 0 0 0 0 0 0 0 0 0 0 0 0 0 0 0 0 0 0 0 0 0 0 0 0 0 0 0 0 0 0 0 0 0 0 0 0 0 0 0
0 0 0 0 0 0 0 0 0 0 0 0 0 0 0 0 0 0 0 0 0 0 0 0 0 0 0 0 0 0 0 0 0 0 0 0 0 0 0 0 0 0 0
0 0 0 0 0 0 0 0 0 0 0 0 0 0 0 0 0 0 0 0 0 0 0 0 0 0 0 0 0 0 0 0 0 0 0 0 0 0 0 0 0 0 0
0 0 0 0 0 0 0 0 0 0 0 0 0 0 0 0 0 0 0 0 0 0 0 0 0 0 0 0 0 0 0 0 0 0 0 0 0 0 0 0 0 0 0
0 0 0 0 0 0 0 0 0 0 0 0 0 0 0 0 0 0 0 0 0 0 0 0 0 0 0 0 0 0 0 0 0 0 0 0 0 0 0 0 0 0 0
0 0 0 0 0 0 0 0 0 0 0 0 0 0 0 0 0 0 0 0 0 0 0 0 0 0 0 0 0 0 0 0 0 0 0 0 0 0 0 0 0 0 0
0 0 0 0 0 0 0 0 0 0 0 0 0 0 0 0 0 0 0 0 0 0 0 0 0 0 0 0 0 0 0 0 0 0 0 0 0 0 0 0 0 0 0
0 0 0 0 0 0 0 0 0 0 0 0 0 0 0 0 0 0 0 0 0 0 0 0 0 0 0 0 0 0 0 0 0 0 0 0 0 0 0 0 0 0 0
0 0 0 0 0 0 0 0 0 0 0 0 0 0 0 0 0 0 0 0 0 0 0 0 0 0 0 0 0 0 0 0 0 0 0 0 0 0 0 0 0 0 0
0 0 0 0 0 0 0 0 0 0 0 0 0 0 0 0 0 0 0 0 0 0 0 0 0 0 0 0 0 0 0 0 0 0 0 0 0 0 0 0 0 0 0
0 0 0 0 0 0 0 0 0 0 0 0 0 0 0 0 0 0 0 0 0 0 0 0 0 0 0 0 0 0 0 0 0 0 0 0 0 0 0 0 0 0 0
0 0 0 0 0 0 0 0 0 0 0 0 0 0 0 0 0 0 0 0 0 0 0 0 0 0 0 0 0 0 0 0 0 0 0 0 0 0 0 0 0 0 0
-0 0 0 0 0 0 0 0 0 0 0 0 0 0 0 0 0 0 0 0 0 0 0 0 0 0 0 0 0 0 0 0 0 0 0 0 0 0 0 0 0 0 0
-0 0 0 0 0 0 0 0 0 0 0 0 0 0 0 0 0 0 0 0 0 0 0 0 0 0 0 0 0 0 0 0 0 0 0 0 0 0 0 0 0 0 0
0 0 0 0 0 0 0 0 0 0 0 0 0 0 0 0 0 0 0 0 0 0 0 0 0 0 0 0 0 0 0 0 0 0 0 0 0 0 0 0 0 0 0
0 0 0 0 0 0 0 0 0 0 0 0 0 0 0 0 0 0 0 0 0 0 0 0 0 0 0 0 0 0 0 0 0 0 0 0 0 0 0 0 0 0 0
0 0 0 0 0 0 0 0 0 0 0 0 0 0 0 0 0 0 0 0 0 0 0 0 0 0 0 0 0 0 0 0 0 0 0 0 0 0 0 0 0 0 0
0 0 0 0 0 0 0 0 0 0 0 0 0 0 0 0 0 0 0 0 0 0 0 0 0 0 0 0 0 0 0 0 0 0 0 0 0 0 0 0 0 0 0
0 0 0 0 0 0 0 0 0 0 0 0 0 0 0 0 0 0 0 0 0 0 0 0 0 0 0 0 0 0 0 0 0 0 0 0 0 0 0 0 0 0 0
0 0 0 0 0 0 0 0 0 0 0 0 0 0 0 0 0 0 0 0 0 0 0 0 0 0 0 0 0 0 0 0 0 0 0 0 0 0 0 0 0 0 0
0 0 0 0 0 0 0 0 0 0 0 0 0 0 0 0 0 0 0 0 0 0 0 0 0 0 0 0 0 0 0 0 0 0 0 0 0 0 0 0 0 0 0
0 0 0 0 0 0 0 0 0 0 0 0 0 0 0 0 0 0 0 0 0 0 0 0 0 0 0 0 0 0 0 0 0 0 0 0 0 0 0 0 0 0 0
0 0 0 0 0 0 0 0 0 0 0 0 0 0 0 0 0 0 0 0 0 0 0 0 0 0 0 0 0 0 0 0 0 0 0 0 0 0 0 0 0 0 0
Wind_Speed_500mb
81 86 96 103 107 107 109 107 104 99 97 96 93 89 83 78 76 76 76 74 71 66 60 56 56 53 55 50 43 42 41 41 46 49 48 46 46 49 50 51 38 39 36
83 90 93 97 102 107 111 110 108 105 99 97 94 93 88 84 79 78 77 76 71 65 60 58 58 53 54 47 48 50 46 47 44 53 49 55 52 54 50 43 35 32 35
65 74 86 90 92 104 111 111 109 107 101 96 95 94 92 86 83 81 79 75 67 64 60 61 58 54 55 52 50 53 49 46 52 57 50 56 55 57 48 34 32 32 37
57 66 78 91 100 104 107 107 107 108 104 98 94 95 91 86 83 79 75 69 65 65 60 59 56 54 51 53 55 51 51 56 57 51 56 58 56 53 36 39 37 37 27
58 62 71 76 84 92 99 105 104 104 105 101 96 94 88 85 82 78 74 69 67 63 61 61 60 57 55 54 57 58 54 56 59 59 62 59 50 33 37 36 32 25 23
72 70 74 73 77 87 92 97 100 101 102 100 97 90 87 84 77 72 66 66 65 63 62 59 57 55 53 52 54 53 52 54 53 52 53 47 39 35 34 32 27 23 16
93 97 92 88 81 84 87 89 98 100 101 101 95 87 86 78 72 68 67 66 64 61 57 56 54 52 51 52 51 50 51 48 44 40 41 38 36 31 27 23 22 22 21
89 91 89 87 83 80 85 89 95 93 98 98 91 86 77 73 73 71 67 66 64 61 59 56 52 51 50 50 49 47 43 37 39 41 38 36 31 26 22 19 20 22 21
97 96 95 92 86 81 85 85 87 88 89 91 88 82 79 76 74 72 69 68 65 62 57 55 52 51 50 49 46 39 35 33 31 30 29 28 25 19 17 18 17 19 14
104 100 96 96 95 92 87 85 89 89 91 90 84 82 79 75 72 70 69 67 62 59 57 56 56 51 47 45 42 39 32 28 27 26 22 20 17 13 9 8 8 8 10
109 100 99 98 95 95 95 89 88 91 92 87 87 85 80 75 73 71 68 65 62 61 59 57 52 49 48 45 41 39 33 30 30 26 23 19 15 11 6 1 6 9 12
112 104 101 94 94 91 95 94 89 89 94 94 92 87 82 76 73 70 66 65 61 60 57 53 49 47 43 43 41 39 36 33 33 27 22 18 15 11 9 7 4 5 11
115 108 97 92 93 92 92 98 93 97 101 102 97 92 86 78 74 72 69 67 66 62 54 49 46 42 43 43 37 37 36 34 33 28 24 20 18 17 14 10 4 6 14
119 110 89 89 94 93 92 97 100 106 110 109 102 95 86 79 75 74 73 72 69 63 54 51 50 48 43 40 39 40 35 32 29 25 24 24 23 21 19 15 12 13 15
115 108 89 89 93 96 91 101 110 113 117 116 109 101 92 85 85 81 75 73 70 66 63 59 59 57 53 46 43 39 36 34 29 28 28 26 23 20 20 16 16 17 16
115 106 87 86 93 95 95 100 110 117 115 112 107 98 85 78 76 74 75 70 64 64 65 68 66 63 55 53 49 46 43 37 33 31 29 26 22 19 15 13 13 13 14
100 102 88 86 94 99 100 102 111 114 110 109 107 100 87 80 80 77 76 70 63 60 71 70 68 66 61 55 52 49 44 40 35 32 28 25 21 17 14 9 7 8 13
82 90 83 87 91 96 97 97 105 119 118 108 100 92 84 77 73 75 74 73 69 67 75 73 73 70 63 60 56 52 47 42 37 33 30 26 22 17 12 6 5 9 14
65 74 78 77 84 88 86 85 95 107 107 103 98 85 77 69 68 74 80 81 78 82 84 75 71 70 65 62 57 53 48 44 40 36 32 27 23 17 11 5 6 12 17
58 64 72 69 75 83 83 84 90 100 103 106 106 99 87 81 84 86 90 81 78 84 84 78 74 72 68 66 62 56 52 47 42 37 32 27 21 15 9 6 9 14 19
50 57 59 64 67 76 78 83 86 93 104 109 106 105 104 105 103 103 95 81 83 86 84 79 77 75 72 66 60 58 53 49 43 36 31 27 21 14 10 11 15 18 22
46 51 51 56 63 66 70 76 79 85 90 95 101 108 104 102 107 101 83 85 88 88 84 75 71 69 67 65 63 59 54 48 43 38 33 27 20 14 14 16 18 20 24
38 47 50 51 61 60 62 69 74 83 92 94 99 100 101 107 99 93 83 95 96 92 77 70 66 67 66 60 57 52 48 43 39 36 32 26 20 17 18 19 19 21 24
30 36 42 50 52 58 61 68 82 88 87 87 91 92 100 107 98 95 96 96 92 81 73 69 70 68 66 63 59 55 49 45 41 37 32 26 22 20 20 20 21 23 25
29 26 30 33 46 55 63 74 82 79 78 80 84 89 101 104 106 98 96 91 86 79 71 72 71 69 66 62 59 53 51 46 42 36 31 28 25 23 23 23 23 25 27
32 26 20 21 33 42 52 62 62 67 71 77 84 91 100 107 98 91 89 87 81 72 71 75 73 70 68 63 59 56 50 46 40 35 33 30 28 27 26 24 24 25 27
Wind_Direction_500mb
262 257 253 252 251 250 249 248 247 247 247 247 249 249 248 245 241 238 240 243 248 251 252 252 252 252 255 254 252 258 259 262 271 277 278 279 288 294 298 306 304 309 314
271 264 256 252 253 251 249 249 248 246 245 245 247 246 247 246 243 239 240 242 245 248 247 246 250 250 251 248 246 250 252 259 261 267 280 275 283 292 297 296 307 312 310
280 273 262 255 252 254 254 250 248 245 243 242 242 242 243 244 242 240 239 242 243 245 242 242 244 243 244 244 239 244 248 247 261 264 269 274 284 290 296 298 301 302 304
300 292 274 261 259 257 255 251 248 246 241 240 240 241 242 242 238 236 237 238 239 241 240 242 240 243 246 247 247 254 255 256 263 260 264 272 278 286 287 291 297 298 300
297 302 295 278 263 257 253 252 248 245 242 239 237 237 239 236 235 235 235 236 237 239 240 239 245 246 249 246 248 253 256 257 258 255 261 267 271 272 276 280 289 296 298
290 290 297 287 275 261 254 249 247 245 242 238 234 234 234 235 237 237 237 237 240 239 240 241 244 246 248 252 254 257 258 256 255 255 260 263 266 267 275 280 285 295 308
293 293 292 286 278 268 256 249 247 244 242 235 233 233 234 235 235 233 233 236 237 240 241 242 242 245 248 250 251 253 255 253 251 251 258 262 264 269 271 273 290 305 313
291 290 288 283 282 272 259 250 247 244 241 238 234 235 233 230 229 231 232 234 234 235 238 240 240 242 246 249 248 249 251 247 247 249 251 254 258 268 275 285 297 302 308
294 291 291 288 281 274 261 252 244 239 236 236 235 232 228 225 227 230 232 233 233 234 235 237 239 242 243 244 242 237 237 244 245 242 247 249 256 252 264 289 306 310 323
300 299 299 293 281 271 262 252 244 240 237 234 230 226 225 226 229 232 234 233 233 233 232 234 237 236 237 233 230 230 229 236 235 232 235 230 234 247 267 299 327 342 357
300 304 301 294 281 273 260 250 244 239 233 228 225 224 224 225 228 232 235 234 234 232 232 232 232 233 232 227 224 228 228 226 222 222 216 220 224 233 238 63 65 47 34
299 299 298 292 283 271 257 247 240 232 227 223 220 221 223 224 227 231 231 234 232 232 233 232 231 229 229 224 222 220 217 211 209 206 207 205 207 194 173 149 107 24 351
297 295 295 289 281 268 256 243 233 226 222 219 218 219 221 223 227 230 229 230 231 228 228 228 229 221 216 213 216 208 209 204 206 197 199 197 192 190 186 185 214 307 315
296 294 291 282 276 264 253 242 232 225 220 218 216 218 221 224 227 227 225 224 224 221 216 218 217 213 213 215 210 199 198 197 199 196 194 190 195 197 198 213 245 281 294
295 290 285 279 270 261 252 243 234 230 227 222 221 221 221 223 231 229 228 225 221 216 215 211 209 206 205 203 194 191 194 195 195 193 192 192 197 199 217 242 271 285 298
293 285 278 274 267 258 250 240 234 231 227 226 229 229 226 231 233 228 224 217 216 215 209 210 208 209 206 199 196 194 194 193 191 192 188 189 197 208 229 245 269 301 319
287 279 273 266 261 253 246 241 234 226 224 225 225 226 224 227 226 222 214 209 208 207 211 210 214 212 204 200 198 195 193 187 188 189 189 193 196 201 213 234 281 318 328
282 275 265 261 257 251 243 239 233 227 220 218 222 224 224 223 219 211 205 202 197 205 215 212 213 211 205 200 195 193 188 182 185 188 188 187 187 191 198 217 283 315 327
280 276 265 256 257 252 244 236 231 226 223 219 214 214 213 209 206 205 205 204 207 208 211 211 213 211 205 199 194 190 186 182 184 184 181 182 186 189 192 219 292 319 331
282 274 266 258 253 248 242 234 229 225 223 221 217 211 198 193 194 198 201 205 210 213 212 210 211 210 205 199 193 189 182 177 180 183 183 184 185 188 206 256 293 308 321
287 278 266 255 248 244 239 235 230 224 221 222 218 212 208 201 201 201 202 205 210 213 211 209 208 208 206 200 189 184 180 177 177 183 186 188 192 205 231 267 290 308 317
287 276 267 247 247 242 239 236 229 224 220 217 214 210 206 205 202 202 206 212 210 210 211 210 209 211 205 193 188 184 180 178 179 186 192 198 206 223 253 274 290 305 314
283 273 269 258 247 246 239 230 226 227 221 217 215 208 202 205 204 206 205 209 211 208 204 207 208 201 195 191 189 186 182 180 185 194 202 208 220 239 259 276 291 304 307
297 279 264 247 244 243 244 240 230 224 218 213 213 209 205 204 205 206 208 211 207 202 201 202 198 196 194 191 190 188 184 188 195 202 210 220 233 250 266 279 292 299 301
324 293 275 271 256 245 239 232 228 225 220 217 213 207 203 207 209 207 208 205 201 197 196 194 192 192 195 195 195 193 194 195 202 208 218 230 243 256 269 278 287 292 293
351 344 315 269 244 233 230 231 234 230 223 218 214 213 213 211 210 206 201 199 195 193 192 192 191 192 194 196 200 201 200 203 208 216 228 237 247 257 264 271 280 283 284
Wind_Speed_850mb
81 86 96 103 107 107 109 107 104 99 97 96 93 89 83 78 76 76 76 74 71 66 60 56 56 53 55 50 43 42 41 41 46 49 48 46 46 49 50 51 38 39 36
83 90 93 97 102 107 111 110 108 105 99 97 94 93 88 84 79 78 77 76 71 65 60 58 58 53 54 47 48 50 46 47 44 53 49 55 52 54 50 43 35 32 35
65 74 86 90 92 104 111 111 109 107 101 96 95 94 92 86 83 81 79 75 67 64 60 61 58 54 55 52 50 53 49 46 52 57 50 56 55 57 48 34 32 32 37
57 66 78 91 100 104 107 107 107 108 104 98 94 95 91 86 83 79 75 69 65 65 60 59 56 54 51 53 55 51 51 56 57 51 56 58 56 53 36 39 37 37 27
58 62 71 76 84 92 99 105 104 104 105 101 96 94 88 85 82 78 74 69 67 63 61 61 60 57 55 54 57 58 54 56 59 59 62 59 50 33 37 36 32 25 23
72 70 74 73 77 87 92 97 100 101 102 100 97 90 87 84 77 72 66 66 65 63 62 59 57 55 53 52 54 53 52 54 53 52 53 47 39 35 34 32 27 23 16
93 97 92 88 81 84 87 89 98 100 101 101 95 87 86 78 72 68 67 66 64 61 57 56 54 52 51 52 51 50 51 48 44 40 41 38 36 31 27 23 22 22 21
89 91 89 87 83 80 85 89 95 93 98 98 91 86 77 73 73 71 67 66 64 61 59 56 52 51 50 50 49 47 43 37 39 41 38 36 31 26 22 19 20 22 21
97 96 95 92 86 81 85 85 87 88 89 91 88 82 79 76 74 72 69 68 65 62 57 55 52 51 50 49 46 39 35 33 31 30 29 28 25 19 17 18 17 19 14
104 100 96 96 95 92 87 85 89 89 91 90 84 82 79 75 72 70 69 67 62 59 57 56 56 51 47 45 42 39 32 28 27 26 22 20 17 13 9 8 8 8 10
109 100 99 98 95 95 95 89 88 91 92 87 87 85 80 75 73 71 68 65 62 61 59 57 52 49 48 45 41 39 33 30 30 26 23 19 15 11 6 1 6 9 12
112 104 101 94 94 91 95 94 89 89 94 94 92 87 82 76 73 70 66 65 61 60 57 53 49 47 43 43 41 39 36 33 33 27 22 18 15 11 9 7 4 5 11
115 108 97 92 93 92 92 98 93 97 101 102 97 92 86 78 74 72 69 67 66 62 54 49 46 42 43 43 37 37 36 34 33 28 24 20 18 17 14 10 4 6 14
119 110 89 89 94 93 92 97 100 106 110 109 102 95 86 79 75 74 73 72 69 63 54 51 50 48 43 40 39 40 35 32 29 25 24 24 23 21 19 15 12 13 15
115 108 89 89 93 96 91 101 110 113 117 116 109 101 92 85 85 81 75 73 70 66 63 59 59 57 53 46 43 39 36 34 29 28 28 26 23 20 20 16 16 17 16
115 106 87 86 93 95 95 100 110 117 115 112 107 98 85 78 76 74 75 70 64 64 65 68 66 63 55 53 49 46 43 37 33 31 29 26 22 19 15 13 13 13 14
100 102 88 86 94 99 100 102 111 114 110 109 107 100 87 80 80 77 76 70 63 60 71 70 68 66 61 55 52 49 44 40 35 32 28 25 21 17 14 9 7 8 13
82 90 83 87 91 96 97 97 105 119 118 108 100 92 84 77 73 75 74 73 69 67 75 73 73 70 63 60 56 52 47 42 37 33 30 26 22 17 12 6 5 9 14
65 74 78 77 84 88 86 85 95 107 107 103 98 85 77 69 68 74 80 81 78 82 84 75 71 70 65 62 57 53 48 44 40 36 32 27 23 17 11 5 6 12 17
58 64 72 69 75 83 83 84 90 100 103 106 106 99 87 81 84 86 90 81 78 84 84 78 74 72 68 66 62 56 52 47 42 37 32 27 21 15 9 6 9 14 19
50 57 59 64 67 76 78 83 86 93 104 109 106 105 104 105 103 103 95 81 83 86 84 79 77 75 72 66 60 58 53 49 43 36 31 27 21 14 10 11 15 18 22
46 51 51 56 63 66 70 76 79 85 90 95 101 108 104 102 107 101 83 85 88 88 84 75 71 69 67 65 63 59 54 48 43 38 33 27 20 14 14 16 18 20 24
38 47 50 51 61 60 62 69 74 83 92 94 99 100 101 107 99 93 83 95 96 92 77 70 66 67 66 60 57 52 48 43 39 36 32 26 20 17 18 19 19 21 24
30 36 42 50 52 58 61 68 82 88 87 87 91 92 100 107 98 95 96 96 92 81 73 69 70 68 66 63 59 55 49 45 41 37 32 26 22 20 20 20 21 23 25
29 26 30 33 46 55 63 74 82 79 78 80 84 89 101 104 106 98 96 91 86 79 71 72 71 69 66 62 59 53 51 46 42 36 31 28 25 23 23 23 23 25 27
32 26 20 21 33 42 52 62 62 67 71 77 84 91 100 107 98 91 89 87 81 72 71 75 73 70 68 63 59 56 50 46 40 35 33 30 28 27 26 24 24 25 27
Wind_Direction_850mb
262 257 253 252 251 250 249 248 247 247 247 247 249 249 248 245 241 238 240 243 248 251 252 252 252 252 255 254 252 258 259 262 271 277 278 279 288 294 298 306 304 309 314
271 264 256 252 253 251 249 249 248 246 245 245 247 246 247 246 243 239 240 242 245 248 247 246 250 250 251 248 246 250 252 259 261 267 280 275 283 292 297 296 307 312 310
280 273 262 255 252 254 254 250 248 245 243 242 242 242 243 244 242 240 239 242 243 245 242 242 244 243 244 244 239 244 248 247 261 264 269 274 284 290 296 298 301 302 304
300 292 274 261 259 257 255 251 248 246 241 240 240 241 242 242 238 236 237 238 239 241 240 242 240 243 246 247 247 254 255 256 263 260 264 272 278 286 287 291 297 298 300
297 302 295 278 263 257 253 252 248 245 242 239 237 237 239 236 235 235 235 236 237 239 240 239 245 246 249 246 248 253 256 257 258 255 261 267 271 272 276 280 289 296 298
290 290 297 287 275 261 254 249 247 245 242 238 234 234 234 235 237 237 237 237 240 239 240 241 244 246 248 252 254 257 258 256 255 255 260 263 266 267 275 280 285 295 308
293 293 292 286 278 268 256 249 247 244 242 235 233 233 234 235 235 233 233 236 237 240 241 242 242 245 248 250 251 253 255 253 251 251 258 262 264 269 271 273 290 305 313
291 290 288 283 282 272 259 250 247 244 241 238 234 235 233 230 229 231 232 234 234 235 238 240 240 242 246 249 248 249 251 247 247 249 251 254 258 268 275 285 297 302 308
294 291 291 288 281 274 261 252 244 239 236 236 235 232 228 225 227 230 232 233 233 234 235 237 239 242 243 244 242 237 237 244 245 242 247 249 256 252 264 289 306 310 323
300 299 299 293 281 271 262 252 244 240 237 234 230 226 225 226 229 232 234 233 233 233 232 234 237 236 237 233 230 230 229 236 235 232 235 230 234 247 267 299 327 342 357
300 304 301 294 281 273 260 250 244 239 233 228 225 224 224 225 228 232 235 234 234 232 232 232 232 233 232 227 224 228 228 226 222 222 216 220 224 233 238 63 65 47 34
299 299 298 292 283 271 257 247 240 232 227 223 220 221 223 224 227 231 231 234 232 232 233 232 231 229 229 224 222 220 217 211 209 206 207 205 207 194 173 149 107 24 351
297 295 295 289 281 268 256 243 233 226 222 219 218 219 221 223 227 230 229 230 231 228 228 228 229 221 216 213 216 208 209 204 206 197 199 197 192 190 186 185 214 307 315
296 294 291 282 276 264 253 242 232 225 220 218 216 218 221 224 227 227 225 224 224 221 216 218 217 213 213 215 210 199 198 197 199 196 194 190 195 197 198 213 245 281 294
295 290 285 279 270 261 252 243 234 230 227 222 221 221 221 223 231 229 228 225 221 216 215 211 209 206 205 203 194 191 194 195 195 193 192 192 197 199 217 242 271 285 298
293 285 278 274 267 258 250 240 234 231 227 226 229 229 226 231 233 228 224 217 216 215 209 210 208 209 206 199 196 194 194 193 191 192 188 189 197 208 229 245 269 301 319
287 279 273 266 261 253 246 241 234 226 224 225 225 226 224 227 226 222 214 209 208 207 211 210 214 212 204 200 198 195 193 187 188 189 189 193 196 201 213 234 281 318 328
282 275 265 261 257 251 243 239 233 227 220 218 222 224 224 223 219 211 205 202 197 205 215 212 213 211 205 200 195 193 188 182 185 188 188 187 187 191 198 217 283 315 327
280 276 265 256 257 252 244 236 231 226 223 219 214 214 213 209 206 205 205 204 207 208 211 211 213 211 205 199 194 190 186 182 184 184 181 182 186 189 192 219 292 319 331
282 274 266 258 253 248 242 234 229 225 223 221 217 211 198 193 194 198 201 205 210 213 212 210 211 210 205 199 193 189 182 177 180 183 183 184 185 188 206 256 293 308 321
287 278 266 255 248 244 239 235 230 224 221 222 218 212 208 201 201 201 202 205 210 213 211 209 208 208 206 200 189 184 180 177 177 183 186 188 192 205 231 267 290 308 317
287 276 267 247 247 242 239 236 229 224 220 217 214 210 206 205 202 202 206 212 210 210 211 210 209 211 205 193 188 184 180 178 179 186 192 198 206 223 253 274 290 305 314
283 273 269 258 247 246 239 230 226 227 221 217 215 208 202 205 204 206 205 209 211 208 204 207 208 201 195 191 189 186 182 180 185 194 202 208 220 239 259 276 291 304 307
297 279 264 247 244 243 244 240 230 224 218 213 213 209 205 204 205 206 208 211 207 202 201 202 198 196 194 191 190 188 184 188 195 202 210 220 233 250 266 279 292 299 301
324 293 275 271 256 245 239 232 228 225 220 217 213 207 203 207 209 207 208 205 201 197 196 194 192 192 195 195 195 193 194 195 202 208 218 230 243 256 269 278 287 292 293
351 344 315 269 244 233 230 231 234 230 223 218 214 213 213 211 210 206 201 199 195 193 192 192 191 192 194 196 200 201 200 203 208 216 228 237 247 257 264 271 280 283 284